Bluefield, WV

1:20 AM EDT on August 20, 2017 (GMT -0400)
Mercer County

Weather History for KBLF - May, 2013

Change the Weather History Date:

Thursday, May 16, 2013

  Actual Average Record
Temperature  
Mean Temperature 69 °F 63 °F  
Max Temperature 77 °F 72 °F 83 °F (2015)
Min Temperature 61 °F 53 °F 33 °F (1997)
Degree Days  
Heating Degree Days 0 4  
Month to date heating degree days 122 88  
Since 1 July heating degree days 4650 4518  
Cooling Degree Days 4 2  
Month to date cooling degree days 16 23  
Year to date cooling degree days 43 51  
Growing Degree Days 20 (Base 50)    
Moisture  
Dew Point 51 °F    
Average Humidity 55    
Maximum Humidity 72    
Minimum Humidity 38    
Precipitation  
Precipitation 0.00 in 0.14 in 2.14 in (2001)
Month to date precipitation 1.81 2.14  
Year to date precipitation 17.11 14.65  
Snow  
Snow 0.00 in - - ()
Month to date snowfall 0.0  
Since 1 July snowfall 56.0  
Snow Depth 0.00 in    
Sea Level Pressure  
Sea Level Pressure 29.96 in    
Wind  
Wind Speed 9 mph (West)    
Max Wind Speed 20 mph    
Max Gust Speed 29 mph    
Visibility 10 miles    
Events      
T = Trace of Precipitation, MM = Missing Value Source: NWS Daily Summary

Daily Weather History Graph

Daily Weather History Graph

Search for Another Location

Airport or City:

Trip Planner

Search our weather history database for the weather conditions in past years. The results will help you decide how hot, cold, wet, or windy it might be!

Date:

Astronomy

May. 16, 2013 Rise Set
Actual Time 6:15 AM EDT 8:27 PM EDT
Civil Twilight 5:45 AM EDT 8:57 PM EDT
Nautical Twilight 5:10 AM EDT 9:33 PM EDT
Astronomical Twilight 4:31 AM EDT 10:12 PM EDT
Moon 11:44 AM EDT (5/16) 12:49 AM EDT (5/16)
Length of Visible Light 15h 11m
Length of Day
14h 12m
Waxing Crescent, 35% of the Moon is Illuminated
May 16
Waxing Crescent
May 18
First Quarter
May 25
Full
May 31
Last Quarter
Jun 8
New

Hourly Weather History & Observations

Time (EDT) Temp. Dew Point Humidity Pressure Visibility Wind Dir Wind Speed Gust Speed Precip Events Conditions
12:52 AM 68.0 °F 53.1 °F 59% 29.93 in 10.0 mi West 8.1 mph - N/A   Clear
1:52 AM 66.9 °F 53.1 °F 61% 29.92 in 10.0 mi West 9.2 mph - N/A   Clear
2:52 AM 64.9 °F 52.0 °F 63% 29.91 in 10.0 mi West 8.1 mph - N/A   Clear
3:52 AM 66.0 °F 48.9 °F 54% 29.91 in 10.0 mi West 10.4 mph - N/A   Clear
4:52 AM 64.0 °F 48.0 °F 56% 29.92 in 10.0 mi WNW 5.8 mph - N/A   Clear
5:52 AM 62.1 °F 48.0 °F 60% 29.92 in 10.0 mi West 4.6 mph - N/A   Clear
6:52 AM 62.1 °F 48.0 °F 60% 29.94 in 10.0 mi WSW 5.8 mph - N/A   Clear
7:52 AM 64.9 °F 48.9 °F 56% 29.96 in 10.0 mi West 9.2 mph - N/A   Clear
8:52 AM 69.1 °F 50.0 °F 51% 29.97 in 10.0 mi WNW 13.8 mph - N/A   Clear
9:52 AM 71.1 °F 51.1 °F 49% 29.96 in 10.0 mi West 12.7 mph 21.9 mph N/A   Clear
10:52 AM 71.1 °F 51.1 °F 49% 29.98 in 10.0 mi West 9.2 mph - N/A   Clear
11:52 AM 71.1 °F 52.0 °F 51% 29.98 in 10.0 mi West 12.7 mph 20.7 mph N/A   Partly Cloudy
12:52 PM 71.1 °F 51.1 °F 49% 29.99 in 10.0 mi West 13.8 mph 26.5 mph N/A   Scattered Clouds
1:52 PM 73.9 °F 52.0 °F 46% 29.98 in 10.0 mi WNW 11.5 mph - N/A   Partly Cloudy
2:52 PM 75.9 °F 53.1 °F 45% 29.96 in 10.0 mi SW 11.5 mph 16.1 mph N/A   Clear
3:52 PM 77.0 °F 54.0 °F 45% 29.93 in 10.0 mi WSW 10.4 mph 17.3 mph N/A   Scattered Clouds
4:52 PM 75.0 °F 53.1 °F 46% 29.94 in 10.0 mi West 8.1 mph - N/A   Overcast
5:52 PM 75.0 °F 48.9 °F 40% 29.94 in 10.0 mi West 9.2 mph 18.4 mph N/A   Partly Cloudy
6:52 PM 73.0 °F 53.1 °F 49% 29.97 in 10.0 mi WNW 8.1 mph - N/A   Scattered Clouds
7:52 PM 68.0 °F 53.1 °F 59% 30.01 in 10.0 mi North 11.5 mph 20.7 mph N/A   Overcast
8:52 PM 64.0 °F 53.1 °F 67% 30.00 in 10.0 mi Calm Calm - N/A   Clear
9:52 PM 62.1 °F 53.1 °F 72% 30.01 in 10.0 mi West 4.6 mph - N/A   Clear
10:52 PM 62.1 °F 53.1 °F 72% 30.02 in 10.0 mi WSW 5.8 mph - N/A   Overcast
11:52 PM 62.1 °F 53.1 °F 72% 30.01 in 10.0 mi West 4.6 mph - N/A   Mostly Cloudy